Regional Weather Roundup
Issued by NWS

Home | Current Version | Previous Version | Graphics & Text | Print | Product List | Glossary On
Versions: 1 2 3 4 5 6 7 8 9 10 11 12 13 14 15 16 17 18 19 20 21 22 23 24 25 26 27 28 29 30 31 32 33 34 35 36 37 38 39 40 41 42 43 44 45 46 47 48 49 50
000
ASUS43 KLOT 130906
RWRIL

ILLINOIS REGIONAL WEATHER ROUNDUP
NATIONAL WEATHER SERVICE CHICAGO/ROMEOVILLE IL
400 AM CDT SUN JUL 13 2014

NOTE: "FAIR" INDICATES FEW OR NO CLOUDS BELOW 12,000 FEET WITH NO
SIGNIFICANT WEATHER AND/OR OBSTRUCTIONS TO VISIBILITY.

* THESE STATIONS ARE NOT UNDER NWS QUALITY CONTROL. THEY ALSO MAY NOT
  REPORT WEATHER SUCH AS PRECIPITATION OR FOG.

ILZ001-002-007-009-015-016-024-131000-
NORTHWEST ILLINOIS

CITY           SKY/WX    TMP DP  RH WIND       PRES   REMARKS
MOLINE         CLOUDY    67  64  90 NW8       29.95R
STERLING*      MOCLDY    66  63  88 NW8       29.93S
SAVANNA*       CLOUDY    66  64  91 N3          N/A
$$

ILZ003-004-008-010-011-017-018-131000-
NORTH CENTRAL ILLINOIS

CITY           SKY/WX    TMP DP  RH WIND       PRES   REMARKS
ROCKFORD       MOCLDY    66  64  93 NW7       29.93R
FREEPORT*      MOCLDY    62  61  96 NW6       29.94S
ROCHELLE*      PTCLDY    67  65  94 W3        29.92R
DE KALB*       CLOUDY    67  66  96 NW9       29.91R
PERU*          CLOUDY    70  68  94 NW12      29.92R
$$

ILZ005-006-012>014-019>023-131000-
NORTHEAST ILLINOIS

CITY           SKY/WX    TMP DP  RH WIND       PRES   REMARKS
CHICAGO-OHARE  CLOUDY    71  66  84 W12       29.87R
CHICAGO-MIDWAY CLOUDY    73  71  93 W9        29.87R
AURORA         CLOUDY    70  67  90 NW12      29.89S
LANSING*       CLOUDY    71  69  92 W10       29.88R
JOLIET*        CLOUDY    70  68  95 NW7       29.90R
WAUKEGAN       CLEAR     67  65  93 NW6       29.86R
DUPAGE AIRPORT CLOUDY    70  67  90 NW12      29.87S
KANKAKEE*      CLOUDY    73  71  95 SW7       29.91R
WHEELING       CLOUDY    71  68  90 NW7       29.88R
MORRIS*        MOCLDY    71  71 100 NW8       29.89R
ROMEOVILLE*    CLOUDY    70  69  97 NW12      29.89R
NORTHERLY ISL    N/A     71  68  90 W6          N/A
$$

LMZ740>746-131000-
SOUTHERN LAKE MICHIGAN

STATION/POSITION SKY/WX   TEMP    WIND        PRES    VSBY  WAVE
                          AIR SEA DIR/SP/G                  HT/PER
                          (F)     (DEG/KT/KT) (MB)    (MI)  (FT/S)
SOUTHERN BUOY              65 64  300/ 14/ 17 1009.9R         1/ 4
WAUKEGAN HARBOR            69     300/  7/  9 1012.2S
HARRISON CRIB              70     270/ 16/ 19   N/A
BURNHAM HARBOR             71     280/ 10/ 11   N/A
CALUMET HARBOR             71     240/  6/  9 1012.0R
MICHIGAN CITY              71     210/ 14/ 21   N/A
$$

ILZ025>027-034>036-040-047-049-050-058-095>099-131000-
WEST-CENTRAL ILLINOIS

CITY           SKY/WX    TMP DP  RH WIND       PRES   REMARKS
QUINCY         LGT RAIN  73  70  90 NW3       29.97F
GALESBURG*     CLOUDY    69  69  99 NW5       29.95S
MACOMB*        CLOUDY    71  71 100 W5        29.97F
JACKSONVILLE*  CLOUDY    76  73  91 CALM      29.98R
PITTSFIELD*    HVY RAIN  77  71  82 N7G16     30.00R
$$

ILZ028>032-037-038-041>044-048-051>054-059>061-131000-
CENTRAL ILLINOIS

CITY           SKY/WX    TMP DP  RH WIND       PRES   REMARKS
PONTIAC          N/A     73  73 100 W7        29.92R
BLOOMINGTON    RAIN      70  68  93 SW13      29.96F FOG
DECATUR        CLOUDY    78  71  79 NW17G25   29.97R HX  80
PEORIA         CLOUDY    74  70  87 W8        29.95R
LACON*         CLOUDY    71  68  90 W7        29.92R
LINCOLN*       TSTM      74  72  93 W3        29.93F
SPRINGFIELD    TSTM      75  72  90 N9        29.96R FOG
TAYLORVILLE    CLOUDY    77  70  78 W8        29.95R
$$

ILZ033-039-045-046-055>057-062-063-131000-
EAST-CENTRAL ILLINOIS

CITY           SKY/WX    TMP DP  RH WIND       PRES   REMARKS
CHAMPAIGN      LGT RAIN  76  73  91 NW9       29.97R
RANTOUL*       RAIN      75  71  88 W6        29.96S
MATTOON        MOCLDY    78  72  81 SW10      29.94S HX  80
PARIS*         CLOUDY    77  73  88 SW8       29.95S
$$

ILZ079-100>102-131000-
SOUTHWEST ILLINOIS

CITY           SKY/WX    TMP DP  RH WIND       PRES   REMARKS
ALTON          CLEAR     79  74  82 SW10      29.96S HX  83
CAHOKIA*       CLEAR     80  72  76 SW6       29.96F HX  84
SPARTA*        PTCLDY    75  72  88 SW6       29.99F
$$

ILZ064>066-069>071-074>076-080>082-084>086-088>090-092>094-131000-
SOUTH-CENTRAL ILLINOIS

CITY           SKY/WX    TMP DP  RH WIND       PRES   REMARKS
CARBONDALE     PTCLDY    79  72  79 SW9       30.00R HX  82
CAIRO*         CLEAR     79  72  80 S5        30.01S HX  82
MARION         CLEAR     79  73  83 SW6       30.01S HX  82
MT. VERNON     PTCLDY    77  70  78 SW8       29.99S
CENTRALIA*     PTCLDY    76  70  81 SW8       29.98S
SALEM*         PTCLDY    80  74  82 SW8       29.97S HX  84
METROPOLIS*    CLEAR     77  69  75 CALM      30.01S
$$

ILZ067-068-072-073-078-083-087-091-131000-
SOUTHEAST ILLINOIS

CITY           SKY/WX    TMP DP  RH WIND       PRES   REMARKS
FLORA*         MOCLDY    76  72  86 SW8       29.97S
HARRISBURG*    CLEAR     76  73  92 SW5       30.01S
ROBINSON*      MOCLDY    77  74  90 SW7       29.97S
CARMI*         CLEAR     78  73  85 SW9       29.98F HX  81
$$

ABBREVIATIONS USED IN REMARKS
   TC - TEMPERATURE IN CELSIUS
  WCI - WIND CHILL INDEX
   HX - HEAT INDEX
  VSB - VISIBILITY
$$




USA.gov is the U.S. government's official web portal to all federal, state and local government web resources and services.